2023/12/18 00:00:00,14.3,-1.9
2023/12/18 00:10:00,14.6,-1.9
2023/12/18 00:20:00,14.8,-2.2
2023/12/18 00:30:00,14.9,-1.8
2023/12/18 00:40:00,15.0,-1.9
2023/12/18 00:50:00,15.1,-2.3
2023/12/18 01:00:00,15.1,-1.9
2023/12/18 01:10:00,15.1,-1.7
2023/12/18 01:20:00,15.0,-1.9
2023/12/18 01:30:00,15.0,-1.7
2023/12/18 01:40:00,14.9,-1.9
2023/12/18 01:50:00,14.8,-1.9
2023/12/18 02:00:00,14.9,-1.9
2023/12/18 02:10:00,14.8,-1.9
2023/12/18 02:20:00,14.6,-1.9
2023/12/18 02:30:00,14.5,-1.9
2023/12/18 02:40:00,14.4,-1.9
2023/12/18 02:50:00,14.4,-1.7
2023/12/18 03:00:00,14.5,-1.5
2023/12/18 03:10:00,14.4,-1.8
2023/12/18 03:20:00,14.4,-1.5
2023/12/18 03:30:00,14.5,-1.7
2023/12/18 03:40:00,14.8,-1.6
2023/12/18 03:50:00,14.8,-1.8
2023/12/18 04:00:00,14.8,-1.6
2023/12/18 04:10:00,14.9,-1.6
2023/12/18 04:20:00,15.1,-1.5
2023/12/18 04:30:00,15.1,-1.5
2023/12/18 04:40:00,15.1,-1.4
2023/12/18 04:50:00,15.1,-1.6
2023/12/18 05:00:00,15.3,-1.6
2023/12/18 05:10:00,15.4,-1.5
2023/12/18 05:20:00,15.3,-1.5
2023/12/18 05:30:00,15.3,-1.4
2023/12/18 05:40:00,15.2,-1.2
2023/12/18 05:50:00,15.4,-1.2
2023/12/18 06:00:00,15.6,-1.3
2023/12/18 06:10:00,15.9,-1.2
2023/12/18 06:20:00,16.1,-1.3
2023/12/18 06:30:00,15.8,-1.3
2023/12/18 06:40:00,15.4,-1.1
2023/12/18 06:50:00,15.4,-1.2
2023/12/18 07:00:00,15.5,-1.3
2023/12/18 07:10:00,15.5,-1.1
2023/12/18 07:20:00,15.4,-1.1
2023/12/18 07:30:00,15.3,-1.1
2023/12/18 07:40:00,15.4,-0.9
2023/12/18 07:50:00,15.6,-0.9
2023/12/18 08:00:00,15.5,-0.7
2023/12/18 08:10:00,15.5,-0.9
2023/12/18 08:20:00,15.6,-0.5
2023/12/18 08:30:00,15.7, 0.0
2023/12/18 08:40:00,15.7,-0.1
2023/12/18 08:50:00,15.7, 0.2
2023/12/18 09:00:00,15.6,-0.2
2023/12/18 09:10:00,15.7,-0.1
2023/12/18 09:20:00,16.3,-0.2
2023/12/18 09:30:00,16.5, 0.1
2023/12/18 09:40:00,16.6, 0.4
2023/12/18 09:50:00,16.8, 1.1
2023/12/18 10:00:00,16.8, 1.1
2023/12/18 10:10:00,16.7, 1.6
2023/12/18 10:20:00,16.7, 1.7
2023/12/18 10:30:00,16.2, 1.3
2023/12/18 10:40:00,16.1, 1.2
2023/12/18 10:50:00,16.1, 1.7
2023/12/18 11:00:00,16.3, 1.9
2023/12/18 11:10:00,16.1, 1.6
2023/12/18 11:20:00,15.8, 1.1
2023/12/18 11:30:00,15.6, 1.1
2023/12/18 11:40:00,15.6, 1.2
2023/12/18 11:50:00,15.8, 1.6
2023/12/18 12:00:00,15.4, 1.2
2023/12/18 12:10:00,15.3, 1.3
2023/12/18 12:20:00,15.2, 1.5
2023/12/18 12:30:00,14.8, 1.6
2023/12/18 12:40:00,14.4, 1.1
2023/12/18 12:50:00,14.1, 1.4
2023/12/18 13:00:00,14.6, 2.4
2023/12/18 13:10:00,14.8, 2.1
2023/12/18 13:20:00,13.9, 1.6
2023/12/18 13:30:00,13.4, 1.4
2023/12/18 13:40:00,13.1, 1.3
2023/12/18 13:50:00,13.1, 1.5
2023/12/18 14:00:00,13.2, 1.5
2023/12/18 14:10:00,12.6, 1.5
2023/12/18 14:20:00,12.2, 1.2
2023/12/18 14:30:00,12.0, 1.2
2023/12/18 14:40:00,11.8, 0.8
2023/12/18 14:50:00,11.9, 1.0
2023/12/18 15:00:00,11.9, 1.0
2023/12/18 15:10:00,11.7, 0.6
2023/12/18 15:20:00,11.5, 0.6
2023/12/18 15:30:00,11.5, 0.5
2023/12/18 15:40:00,11.5, 0.5
2023/12/18 15:50:00,11.3, 0.4
2023/12/18 16:00:00,11.2, 0.1
2023/12/18 16:10:00,11.0, 0.3
2023/12/18 16:20:00,10.9, 0.2
2023/12/18 16:30:00,10.7, 0.4
2023/12/18 16:40:00,10.7,-0.1
2023/12/18 16:50:00,10.7, 0.0
2023/12/18 17:00:00,10.7, 0.0
2023/12/18 17:10:00,10.6, 0.1
2023/12/18 17:20:00,10.6,-0.1
2023/12/18 17:30:00,10.5, 0.1
2023/12/18 17:40:00,10.4, 0.1
2023/12/18 17:50:00,10.3,-0.2
2023/12/18 18:00:00,10.3, 0.0
2023/12/18 18:10:00,10.3, 0.0
2023/12/18 18:20:00,10.3, 0.0
2023/12/18 18:30:00,10.3, 0.1
2023/12/18 18:40:00,10.2, 0.1
2023/12/18 18:50:00,10.2, 0.1
2023/12/18 19:00:00,10.2, 0.1
2023/12/18 19:10:00,10.1,-0.1
2023/12/18 19:20:00,10.0, 0.1
2023/12/18 19:30:00,10.0,-0.2
2023/12/18 19:40:00, 9.9,-0.1
2023/12/18 19:50:00, 9.8,-0.2
2023/12/18 20:00:00, 9.8, 0.1
2023/12/18 20:10:00, 9.8,-0.2
2023/12/18 20:20:00, 9.7,-0.1
2023/12/18 20:30:00, 9.6,-0.1
2023/12/18 20:40:00, 9.6, 0.1
2023/12/18 20:50:00, 9.5, 0.0
2023/12/18 21:00:00, 9.5,-0.1
2023/12/18 21:10:00, 9.5, 0.1
2023/12/18 21:20:00, 9.4,-0.1
2023/12/18 21:30:00, 9.4,-0.2
2023/12/18 21:40:00, 9.4,-0.2
2023/12/18 21:50:00, 9.3,-0.1
2023/12/18 22:00:00, 9.3,-0.1
2023/12/18 22:10:00, 9.3,-0.4
2023/12/18 22:20:00, 9.3,-0.2
2023/12/18 22:30:00, 9.2,-0.1
2023/12/18 22:40:00, 9.2,-0.2
2023/12/18 22:50:00, 9.2,-0.3
2023/12/18 23:00:00, 9.2,-0.2
2023/12/18 23:10:00, 9.1,-0.2
2023/12/18 23:20:00, 9.1, 0.0
2023/12/18 23:30:00, 9.1,-0.1
2023/12/18 23:40:00, 9.0,-0.2
2023/12/18 23:50:00, 8.9,-0.2
